Showing default

NVS-02, 62850

Orbit data source: Space-Track

NVS-02, 62850 is a payload satellite owned by ISRO (IN) in HEO that was launched on Wed, 29 Jan 2025 UTC via a GSLV MK II launch vehicle from the Sirharikota (SRI). Payload-class satellites include a variety of spacecraft equipped with specific instruments for various scientific and technological missions. These include communications satellites like Starlink; space stations such as the ISS; scientific satellites like the Hubble; Earth observation satellites from companies like Planet Labs, Umbra, and HawkEye 360; GPS; miniature CubeSats for education and research; and military/defense satellites.

Loading next visibility...
Identifier
62850, 2025-020A
Orbit
HEO
Country
Flag of ININ / IND
Related business
Manufacturer
ISRO
Mission
Partially operational Civil Navigation
Bus & Motor
I2K, ISRO LAM
Mass
2,232 kg wet, ~1,000 kg dry
Launch date (UTC)
2025-01-29 (9 months ago)
Launch vehicle
GSLV MK II
Launch site
Sirharikota (SRI)
Object type
Payload
Rocket body
Debris
Shape & HBR
Box + 2 Pan, 3.0 m
Radar Cross Section
8.526 m², Large (>1 m²)

Expand to show TLE details & history
Last TLE update: 12 hours ago

TLE from 12 hours ago
0 NVS-02
1 62850U 25020A   25287.25963123  .00000125  00000-0  32120-3 0  9994
2 62850  21.0986 349.1204 7354192 347.6294   1.4552  2.17521229  5629
Epoch: 2025-10-14T06:13Z
TLE epoch observation values (Epoch: 2025-10-14T06:13:52.138Z)
Latitude
-0.00015°
Longitude
-127.39214°
Altitude
340.873 km
Speed
10.139 km/s
True Right ascension
23h 16m 30s
True Declination
0° 00' 01"
Sunlit
Object was in full shadow at epoch
Visualization orbit readout
Latitude
Unknown
Longitude
Unknown
Altitude
Unknown
Speed
Unknown
Apparent Right ascension
Unknown
Apparent Declination
Unknown
Sunlit
N/A
Visualization observer readout
Local Sidereal Time
13:12:03
Azimuth
Unknown
Elevation
Unknown
Doppler factor
Unknown
Orbital elements
Apogee altitude
37,295.26 km
Perigee altitude
280.279 km
Semi-major axis
25,165.906 km
Eccentricity
0.73542
Inclination
21.0986°
RAAN
349.1204°
Arg. of periapsis
347.6294°
True anomaly
13.96774°
Mean anomaly
1.4552°
Eccentric anomaly
5.47685°
Mean motion
0.54366 °/min
Orbital period
662.18 mins
BSTAR
0.0003212
Loading maneuver chart data...
Computing Atmospheric mass density...
Loading historical data...
Loading historical data...
Loading historical data...
Loading historical data...
Loading historical data...
Loading historical data...
Loading historical data...
Other satellites on launch #20 in the year 2025 (2025-01-29 UTC)

Documentation

Showing up to 5 results
|